Weather in Bobrava

Russia / Belgorod Oblast     50°56′09″N   35°46′40″E
temp.,
°C
wind,
m/s
gust,
m/s
humid.,
%
clouds,
%
prec.,
mm/h
press.,
hPa
HPBL,
m
25 july, sun
sun2500:00+19e23635 0.1 101768
03:00+15ene237377 0.1 101824
06:00+15ese33723 0.0 101957
09:00+22ese23450 0.0 1019550
12:00+26ese22349 0.0 10202051
15:00+28ne223124 0.0 10192517
18:00+27ene323561 0.0 10191326
21:00+22ese364897 0.0 1020125
26 july, mon
mon2600:00+20se3747100 0.0 1022172
03:00+17se355875 0.0 102269
06:00+18se255599 0.0 1023134
09:00+23se244642 0.0 1023360
12:00+27e233641 0.0 10231823
15:00+28ene333586 0.0 10212208
18:00+25ene364492 0.0 1021160
21:00+22e365027 0.0 102298
27 july, tue
tue2700:00+18ese33595 0.0 102328
03:00+17ese33575 0.0 102326
06:00+17ese34594 0.0 102360
09:00+24ese344369 0.0 1022420
12:00+28ese333361 0.0 10221774
15:00+29ene223085 0.0 10202650
18:00+29ene223357 0.0 10202170
21:00+22e4756100 0.0 1020107
28 july, wed
wed2800:00+19ese3659100 0.0 102091
03:00+21se375099 0.0 1019159
06:00+19sse4105558 0.0 1018197
09:00+26s573959 0.0 1017531
12:00+29ssw4630100 0.0 10162406
15:00+25wnw5954100 0.0 1016592
18:00+23ese3660100 0.0 1013138
21:00+19s41189100 1.6 1013228
29 july, thu
thu2900:00+18ssw39935 0.8 1012195
03:00+17sw37950 0.8 1011158
06:00+18w23915 0.0 101171
09:00+24w237199 0.0 1010366
12:00+29wsw5544100 0.3 10101646
15:00+30w464135 0.3 10081622
18:00+30w57443 0.0 10071371
21:00+20nw91592100 9.1 1009577